FENGYUN 1C DEB

Satellite information

Favourite Embed

Satellite Type and Status

DEBRISIN ORBIT

Key statistics

Satellite FENGYUN 1C DEB at a glance.

Uptime

9660

Days in orbit

Revolutions

≈ 14.3

Per day

Orbit

SSO

Sun Synchronous Orbit

Inclination

99.0

Latest

Satellite identification and parameters

Extended collection of information and parameters for FENGYUN 1C DEB.

Object identification

Identified? True

Debris? True

Object name: FENGYUN 1C DEB

International designator: 1999-025BXY

Object number (NORAD): 31533

Object ID (CCSDS): 31533

Country: PEOPLES REPUBLIC OF CHINA (PRC)

Current information (Y/N): Y

RCS size: SMALL

Orbital parameters

Period: 100.878 minutes

Inclination: 98.9618 deg

SMA: 7178.325 km

Apoapsis: 847.304 km

Periapsis: 753.077 km

RAAN: 182.2091 deg

Eccentricy: 0.0065633

Argument of periapsis: 147.824 deg

Mean anomaly: 212.6971 deg

Mean motion: 14.27473503 rev/day

Mean motion (dot): 0.00001102 rev/day2

B* drag term: 0.00045678818 1/REarth

Two-line elements (TLE)

Creation date: Oct. 19, 2025, 2:20 a.m.

Reference frame: TEME

Reference center: EARTH

Epoch: Oct. 18, 2025, 10:50 a.m. UTC

TLE line 0: 0 FENGYUN 1C DEB

TLE line 1: 1 31533U 99025BXY 25291.45207451 .00001102 00000-0 45679-3 0 9995

TLE line 2: 2 31533 98.9618 182.2091 0065633 147.8240 212.6971 14.27473503653345

Live tracking on map

Real-time ground track for satellite FENGYUN 1C DEB.

In-orbit conjunctions

A list of the most updated potential collisions computed for object FENGYUN 1C DEB.

Target Orbit TCA Probability of collision Miss distance Type
CZ-6A DEB LEO 2025-04-09 09:16:17 0.0003129106 241.0 (m) DEBRIS
COSMOS 2369 LEO 2025-01-01 22:15:36 0.001012057 915.0 (m) PAYLOAD
COSMOS 1275 DEB LEO 2024-11-10 10:10:54 0.0001949308 671.0 (m) DEBRIS

Associated space launch

Chinese polar orbiting meteorological satellite

FENGYUN 1C DEB was lifted into orbit during the mission ‘Long March 4B | Feng Yun 1C’, on board a Long March 4B space rocket.

The launch took place on May 10, 1999, 1:33 a.m. from Launch Complex 7.

For more information about the launch, click the button.

Launch to space Long March 4B | Feng Yun 1C
Long March 4B | Feng Yun 1C

Agency: N/A

Status: Launch Successful

Launch date: May 10, 1999, 1:33 a.m. UTC

Rocket: Long March 4B

Launch pad: Launch Complex 7

Location: Taiyuan Satellite Launch Center, People's Republic of China

...

Latest news about this satellite

There are no fresh news available about this satellite. Check back as we update our databases every day.


Newsletter sign-up

Weekly statistics, charts and insights to help you stay on top of the space industry.